Volver al catálogo

FENGYUN 1C DEB *

LostPO
NORAD 47037·DEBRIS·🇨🇳 China

Lanzado May 10, 1999 desde Taiyuan Satellite Launch Center

Loading…

Próximos Pases (próximas 24 horas)

TLE

ObsoletoSource: Space-Track

Época: Oct 4, 2023, 09:47 UTC

1 47037U 99025FBP 23277.40807963  .00004155  00000-0  29632-2 0  9993
2 47037  98.3199 337.3800 0211732  23.8840  37.7782 13.87666882580098

Sigue FENGYUN 1C DEB * en tiempo real con AllMySat

Download on the App Store